FW6165 Weather Reports


Display with metric or nautical units.
time (UTC)temp
F
wind
direction
speed
MPH
gust
MPH
rain 1hr
in
rain 24hr
in
rain mn
in
humidity
%
barometer
mb
20260510033327 58 134 0.0 0.0 0.00 0.00 0.00 87 1009.5
20260510032327 58 135 0.0 0.0 0.00 0.00 0.00 88 1009.5
20260510031326 58 134 0.0 0.0 0.00 0.00 0.00 88 1009.5
20260510030326 58 134 0.0 0.0 0.00 0.00 0.00 88 1009.1
20260510025325 59 136 0.0 0.0 0.00 0.00 0.00 88 1009.1
20260510024324 59 134 0.0 0.0 0.00 0.00 0.00 88 1009.1
20260510023324 59 134 0.0 0.0 0.00 0.00 0.00 88 1009.1
20260510022323 59 134 0.0 0.0 0.00 0.00 0.00 88 1009.1
20260510021322 59 134 0.0 0.0 0.00 0.00 0.00 88 1009.1
20260510020322 59 134 0.0 0.0 0.00 0.00 0.00 88 1009.1
20260510015321 59 134 0.0 0.0 0.00 0.00 0.00 88 1009.1
20260510014249 60 134 0.0 0.0 0.00 0.00 0.00 88 1008.8
20260510013248 60 135 0.0 0.0 0.00 0.00 0.00 88 1008.8
20260510012248 60 134 0.0 0.0 0.00 0.00 0.00 87 1008.8
20260510011247 61 136 0.0 0.0 0.00 0.00 0.00 86 1008.8
20260510010246 61 134 0.0 0.0 0.00 0.00 0.00 86 1008.5
20260510005215 62 134 0.0 0.0 0.00 0.00 0.00 85 1008.5
20260510004214 62 134 0.0 0.0 0.00 0.00 0.00 84 1008.5
20260510003213 63 134 0.0 0.0 0.00 0.00 0.00 83 1008.1
20260510002212 63 134 0.0 0.0 0.00 0.00 0.00 83 1008.1
20260510001212 64 134 0.0 0.0 0.00 0.00 0.00 83 1008.1
20260510000211 65 134 0.0 0.0 0.00 0.00 0.00 82 1008.1
20260509235210 65 134 0.0 0.0 0.00 0.00 0.00 82 1008.1
20260509234210 66 134 0.0 0.0 0.00 0.00 0.00 81 1007.8
20260509233209 66 134 0.0 0.0 0.00 0.00 0.00 79 1007.8
20260509232137 67 134 0.0 0.0 0.00 0.00 0.00 77 1007.8
20260509231136 68 134 0.0 1.0 0.00 0.00 0.00 75 1007.8
20260509230105 68 130 1.0 1.0 0.00 0.00 0.00 74 1007.8
20260509225033 68 344 0.0 4.0 0.00 0.00 0.00 73 1007.5
20260509224032 68 311 0.0 0.0 0.00 0.00 0.00 75 1007.8
20260509223031 68 311 0.0 0.0 0.00 0.00 0.00 75 1007.8
20260509222035 69 312 0.0 1.0 0.00 0.00 0.00 73 1007.8
20260509221030 70 312 0.0 1.0 0.00 0.00 0.00 70 1007.8
20260509220029 70 342 0.0 3.0 0.00 0.00 0.00 70 1007.8
20260509215028 70 346 1.0 2.0 0.00 0.00 0.00 71 1007.8
20260509214027 69 357 1.0 1.0 0.00 0.00 0.00 73 1007.8
20260509213027 69 23 1.0 1.0 0.00 0.00 0.00 73 1007.8
20260509212026 69 305 0.0 2.0 0.00 0.00 0.00 73 1007.8
20260509211025 68 121 0.0 3.0 0.00 0.00 0.00 72 1007.8
20260509210024 68 328 0.0 3.0 0.00 0.00 0.00 73 1007.5
20260509205023 68 116 0.0 3.0 0.00 0.00 0.00 73 1007.5
20260509204023 67 75 1.0 3.0 0.00 0.00 0.00 75 1007.5
20260509203022 67 120 1.0 3.0 0.00 0.00 0.00 75 1007.5
20260509202021 66 328 1.0 3.0 0.00 0.00 0.00 78 1007.8
20260509201020 66 351 0.0 4.0 0.00 0.00 0.00 77 1008.1
20260509195948 66 159 0.0 5.0 0.00 0.00 0.00 78 1008.1
20260509194917 66 353 2.0 5.0 0.00 0.00 0.00 77 1008.5
20260509193916 66 355 2.0 3.0 0.00 0.00 0.00 79 1008.5
20260509192916 66 338 0.0 2.0 0.00 0.00 0.00 78 1008.5
20260509191915 66 325 0.0 2.0 0.00 0.00 0.00 80 1008.5
20260509190914 65 4 1.0 1.0 0.00 0.00 0.00 83 1008.5
20260509185913 65 292 0.0 0.0 0.00 0.00 0.00 82 1008.8
20260509184913 65 277 0.0 0.0 0.00 0.00 0.00 78 1009.1
20260509183912 65 277 0.0 0.0 0.00 0.00 0.00 78 1009.1
20260509182911 66 277 0.0 0.0 0.00 0.00 0.00 77 1009.1
20260509181911 66 277 0.0 0.0 0.00 0.00 0.00 75 1009.1
20260509180910 66 278 0.0 0.0 0.00 0.00 0.00 74 1009.5
20260509175909 67 277 0.0 0.0 0.00 0.00 0.00 71 1009.8
20260509174908 67 277 0.0 0.0 0.00 0.00 0.00 72 1009.5
20260509173837 67 277 0.0 0.0 0.00 0.00 0.00 71 1009.5
20260509172836 67 276 0.0 0.0 0.00 0.00 0.00 68 1009.5
20260509171835 67 277 0.0 1.0 0.00 0.00 0.00 66 1009.5
20260509170834 68 277 0.0 1.0 0.00 0.00 0.00 64 1009.5
20260509165834 68 235 0.0 1.0 0.00 0.00 0.00 63 1009.5
20260509164833 68 263 0.0 1.0 0.00 0.00 0.00 62 1009.5
20260509163832 69 103 1.0 1.0 0.00 0.00 0.00 64 1009.5
20260509162831 69 278 0.0 1.0 0.00 0.00 0.00 62 1009.5
20260509161759 70 285 1.0 1.0 0.00 0.00 0.00 62 1009.5
20260509160728 69 323 0.0 1.0 0.00 0.00 0.00 64 1009.8
20260509155727 69 270 0.0 1.0 0.00 0.00 0.00 65 1009.8
20260509154726 69 284 1.0 1.0 0.00 0.00 0.00 64 1009.8
20260509153725 68 297 0.0 1.0 0.00 0.00 0.00 66 1009.8
20260509152725 67 263 1.0 1.0 0.00 0.00 0.00 67 1010.2
20260509151724 67 326 0.0 1.0 0.00 0.00 0.00 68 1010.2
20260509150723 66 305 0.0 1.0 0.00 0.00 0.00 70 1010.5
20260509145723 65 305 0.0 1.0 0.00 0.00 0.00 70 1010.5
20260509144722 64 314 0.0 0.0 0.00 0.00 0.00 74 1010.8
20260509143721 64 314 0.0 0.0 0.00 0.00 0.00 74 1010.8
20260509142721 64 314 0.0 0.0 0.00 0.00 0.00 73 1010.8
20260509141720 64 79 0.0 0.0 0.00 0.00 0.00 75 1010.8
20260509140719 63 79 0.0 0.0 0.00 0.00 0.00 75 1010.8
20260509135648 63 79 0.0 1.0 0.00 0.00 0.00 76 1010.8
20260509134647 62 79 0.0 1.0 0.00 0.00 0.00 76 1010.8
20260509133646 62 71 0.0 0.0 0.00 0.00 0.00 75 1010.8
20260509132646 62 72 0.0 1.0 0.00 0.00 0.00 76 1010.8
20260509131645 61 80 1.0 1.0 0.00 0.00 0.00 75 1010.8
20260509130644 61 250 1.0 1.0 0.00 0.00 0.00 76 1010.8
20260509125643 61 271 1.0 1.0 0.00 0.00 0.00 78 1010.8
20260509124642 60 262 0.0 0.0 0.00 0.00 0.00 78 1010.8
20260509123641 60 262 0.0 0.0 0.00 0.00 0.00 78 1010.8
20260509122641 59 263 0.0 0.0 0.00 0.00 0.00 79 1010.8
20260509121640 59 263 0.0 0.0 0.00 0.00 0.00 80 1010.8
20260509120639 58 263 0.0 0.0 0.00 0.00 0.00 80 1010.8
20260509115639 58 262 0.0 0.0 0.00 0.00 0.00 80 1010.8
20260509114638 57 263 0.0 1.0 0.00 0.00 0.00 81 1010.8
20260509113637 56 263 0.0 1.0 0.00 0.00 0.00 82 1010.8
20260509112636 56 108 1.0 1.0 0.00 0.00 0.00 82 1010.8
20260509111635 55 103 0.0 0.0 0.00 0.00 0.00 83 1010.8
20260509110635 55 103 0.0 0.0 0.00 0.00 0.00 83 1010.8
20260509105634 55 103 0.0 0.0 0.00 0.00 0.00 83 1010.8
20260509104633 55 103 0.0 0.0 0.00 0.00 0.00 83 1010.8
20260509103632 55 103 0.0 0.0 0.00 0.00 0.00 82 1010.5
20260509102601 55 103 0.0 0.0 0.00 0.00 0.00 81 1010.5
20260509101600 55 103 0.0 0.0 0.00 0.00 0.00 81 1010.5
20260509100559 55 103 0.0 0.0 0.00 0.00 0.00 81 1010.5
20260509095559 55 103 0.0 0.0 0.00 0.00 0.00 81 1010.2
20260509094558 56 103 0.0 0.0 0.00 0.00 0.00 81 1010.5
20260509093557 56 103 0.0 0.0 0.00 0.00 0.00 81 1010.5
20260509092557 56 103 0.0 0.0 0.00 0.00 0.00 81 1010.5
20260509091556 56 103 0.0 0.0 0.00 0.00 0.00 80 1010.5
20260509090555 56 103 0.0 0.0 0.00 0.00 0.00 77 1010.5
20260509085524 56 103 0.0 0.0 0.00 0.00 0.00 78 1010.5
20260509084523 56 103 0.0 0.0 0.00 0.00 0.00 77 1010.5
20260509083523 56 103 0.0 0.0 0.00 0.00 0.00 77 1010.5
20260509082522 56 103 0.0 0.0 0.00 0.00 0.00 78 1010.8
20260509081450 56 103 0.0 0.0 0.00 0.00 0.00 79 1011.2
20260509080449 56 103 0.0 0.0 0.00 0.00 0.00 80 1010.8
20260509075449 55 103 0.0 0.0 0.00 0.00 0.00 80 1010.8
20260509074417 55 103 0.0 0.0 0.00 0.00 0.00 80 1010.8
20260509073416 55 103 0.0 0.0 0.00 0.00 0.00 80 1010.8
20260509072313 55 103 0.0 0.0 0.00 0.00 0.00 81 1010.8
20260509071313 55 103 0.0 0.0 0.00 0.00 0.00 81 1011.2
20260509070312 55 103 0.0 0.0 0.00 0.00 0.00 81 1011.2
20260509065312 55 103 0.0 0.0 0.00 0.00 0.00 81 1011.2
20260509064311 54 103 0.0 0.0 0.00 0.00 0.00 81 1011.2
20260509063310 54 103 0.0 0.0 0.00 0.00 0.00 81 1011.5
20260509062309 54 103 0.0 0.0 0.00 0.00 0.00 81 1011.5
20260509061309 54 103 0.0 0.0 0.00 0.00 0.00 81 1011.5
20260509060308 54 103 0.0 0.0 0.00 0.00 0.00 81 1011.5
20260509055307 54 103 0.0 0.0 0.00 0.00 0.00 81 1011.5
20260509054306 54 103 0.0 0.0 0.00 0.00 0.00 82 1011.5
20260509053306 54 103 0.0 0.0 0.00 0.00 0.00 81 1011.5
20260509052307 54 103 0.0 0.0 0.00 0.00 0.00 81 1011.5
20260509051304 54 103 0.0 0.0 0.00 0.00 0.00 82 1011.5
20260509050233 54 103 0.0 0.0 0.00 0.00 0.00 82 1011.9
20260509045201 54 103 0.0 0.0 0.00 0.00 0.00 82 1011.5
20260509044129 53 103 0.0 0.0 0.00 0.00 0.00 83 1011.9
20260509043129 53 103 0.0 0.0 0.00 0.00 0.00 83 1011.9
20260509042128 53 103 0.0 0.0 0.00 0.00 0.00 83 1011.9
20260509041128 53 103 0.0 0.0 0.00 0.00 0.00 84 1011.9
20260509040127 54 103 0.0 0.0 0.00 0.00 0.00 84 1011.9
20260509035126 54 103 0.0 0.0 0.00 0.00 0.00 84 1011.9
20260509034126 54 103 0.0 0.0 0.00 0.00 0.00 83 1011.9